| time (UTC) | temp C | wind direction | speed KPH | gust KPH | rain 1hr cm | rain 24hr cm | rain mn cm | humidity % | barometer mb |
| 20260507040049 | 7 | 162 | 0.0 | 3.2 | 0.00 | 1.40 | 0.00 | 82 | 1008.0 |
| 20260507034538 | 7 | 107 | 0.0 | 4.8 | 0.00 | 1.40 | 1.40 | 82 | 1008.1 |
| 20260507033018 | 7 | 152 | 0.0 | 3.2 | 0.00 | 1.40 | 1.40 | 82 | 1008.1 |
| 20260507031511 | 7 | 108 | 0.0 | 3.2 | 0.00 | 1.40 | 1.40 | 82 | 1008.3 |
| 20260507030009 | 7 | 107 | 0.0 | 1.6 | 0.03 | 1.40 | 1.40 | 82 | 1008.2 |
| 20260507024557 | 7 | 120 | 0.0 | 4.8 | 0.03 | 1.40 | 1.40 | 82 | 1008.2 |
| 20260507023057 | 7 | 262 | 0.0 | 4.8 | 0.05 | 1.40 | 1.40 | 82 | 1008.3 |
| 20260507021521 | 7 | 135 | 0.0 | 1.6 | 0.10 | 1.40 | 1.40 | 82 | 1008.2 |
| 20260507014541 | 7 | 205 | 0.0 | 3.2 | 0.13 | 1.37 | 1.37 | 81 | 1008.2 |
| 20260507013005 | 8 | 206 | 0.0 | 4.8 | 0.10 | 1.35 | 1.35 | 81 | 1008.3 |
| 20260507011556 | 8 | 126 | 1.6 | 4.8 | 0.08 | 1.30 | 1.30 | 81 | 1008.0 |
| 20260507010045 | 8 | 141 | 0.0 | 0.0 | 0.05 | 1.27 | 1.27 | 81 | 1007.9 |
| 20260507004539 | 8 | 38 | 0.0 | 1.6 | 0.05 | 1.24 | 1.24 | 81 | 1007.5 |
| 20260507003017 | 8 | 54 | 0.0 | 9.7 | 0.15 | 1.24 | 1.24 | 80 | 1007.5 |
| 20260507001516 | 8 | 301 | 0.0 | 9.7 | 0.15 | 1.22 | 1.22 | 80 | 1007.2 |
| 20260507000055 | 10 | 250 | 0.0 | 9.7 | 0.18 | 1.22 | 1.22 | 81 | 1006.8 |
| 20260506234558 | 11 | 138 | 3.2 | 9.7 | 0.18 | 1.19 | 1.19 | 81 | 1006.1 |
| 20260506233050 | 11 | 191 | 1.6 | 8.0 | 0.13 | 1.09 | 1.09 | 81 | 1005.6 |
| 20260506231533 | 11 | 133 | 0.0 | 8.0 | 0.15 | 1.07 | 1.07 | 81 | 1005.2 |
| 20260506230021 | 12 | 103 | 3.2 | 6.4 | 0.13 | 1.07 | 1.04 | 80 | 1004.9 |
| 20260506224515 | 13 | 110 | 0.0 | 12.9 | 0.10 | 1.04 | 1.02 | 80 | 1004.3 |
| 20260506223003 | 14 | 232 | 0.0 | 6.4 | 0.05 | 0.99 | 0.97 | 82 | 1003.9 |
| 20260506221604 | 14 | 168 | 0.0 | 4.8 | 0.03 | 0.94 | 0.91 | 82 | 1003.6 |
| 20260506220004 | 14 | 141 | 0.0 | 1.6 | 0.05 | 0.94 | 0.91 | 82 | 1003.8 |
| 20260506214557 | 14 | 201 | 0.0 | 4.8 | 0.05 | 0.94 | 0.91 | 82 | 1003.6 |
| 20260506213055 | 14 | 199 | 0.0 | 6.4 | 0.05 | 0.94 | 0.91 | 82 | 1003.7 |
| 20260506211541 | 14 | 220 | 0.0 | 4.8 | 0.03 | 0.91 | 0.89 | 82 | 1003.6 |
| 20260506210043 | 14 | 171 | 0.0 | 1.6 | 0.00 | 0.89 | 0.86 | 82 | 1003.8 |
| 20260506204509 | 14 | 212 | 0.0 | 6.4 | 0.00 | 0.89 | 0.86 | 82 | 1003.9 |
| 20260506203112 | 14 | 217 | 0.0 | 3.2 | 0.00 | 0.89 | 0.86 | 82 | 1004.0 |
| 20260506201541 | 14 | 231 | 0.0 | 9.7 | 0.00 | 0.89 | 0.86 | 82 | 1004.1 |
| 20260506200054 | 14 | 170 | 0.0 | 6.4 | 0.03 | 0.89 | 0.86 | 82 | 1004.2 |
| 20260506194533 | 14 | 262 | 0.0 | 8.0 | 0.05 | 0.89 | 0.86 | 82 | 1004.4 |
| 20260506193025 | 14 | 200 | 0.0 | 8.0 | 0.10 | 0.89 | 0.86 | 82 | 1004.4 |
| 20260506191510 | 14 | 148 | 0.0 | 11.3 | 0.13 | 0.89 | 0.86 | 82 | 1004.5 |
| 20260506190056 | 15 | 199 | 0.0 | 3.2 | 0.15 | 0.86 | 0.84 | 82 | 1004.6 |
| 20260506184550 | 14 | 238 | 0.0 | 0.0 | 0.18 | 0.84 | 0.81 | 81 | 1004.7 |
| 20260506183038 | 15 | 243 | 0.0 | 0.0 | 0.23 | 0.81 | 0.79 | 81 | 1004.8 |
| 20260506181540 | 14 | 231 | 0.0 | 0.0 | 0.25 | 0.76 | 0.71 | 81 | 1004.9 |
| 20260506180011 | 14 | 180 | 0.0 | 0.0 | 0.30 | 0.71 | 0.69 | 81 | 1005.1 |
| 20260506174557 | 14 | 242 | 0.0 | 1.6 | 0.36 | 0.66 | 0.64 | 81 | 1005.4 |
| 20260506173046 | 15 | 205 | 0.0 | 1.6 | 0.36 | 0.58 | 0.56 | 80 | 1005.4 |
| 20260506171537 | 14 | 255 | 0.0 | 0.0 | 0.33 | 0.51 | 0.48 | 80 | 1005.6 |
| 20260506170027 | 15 | 245 | 0.0 | 0.0 | 0.25 | 0.41 | 0.38 | 80 | 1006.0 |
| 20260506164535 | 15 | 281 | 0.0 | 0.0 | 0.15 | 0.28 | 0.25 | 80 | 1006.2 |
| 20260506163004 | 15 | 234 | 0.0 | 0.0 | 0.10 | 0.20 | 0.20 | 79 | 1006.2 |
| 20260506161553 | 15 | 250 | 0.0 | 0.0 | 0.10 | 0.18 | 0.15 | 79 | 1006.4 |
| 20260506160033 | 15 | 250 | 0.0 | 0.0 | 0.08 | 0.15 | 0.13 | 79 | 1006.3 |
| 20260506154513 | 15 | 235 | 0.0 | 0.0 | 0.10 | 0.13 | 0.10 | 79 | 1006.2 |
| 20260506153005 | 15 | 255 | 0.0 | 0.0 | 0.08 | 0.10 | 0.08 | 78 | 1006.4 |
| 20260506151547 | 15 | 238 | 0.0 | 0.0 | 0.05 | 0.08 | 0.05 | 77 | 1006.7 |
| 20260506150042 | 15 | 204 | 0.0 | 4.8 | 0.03 | 0.05 | 0.03 | 75 | 1006.9 |
| 20260506144531 | 16 | 164 | 0.0 | 4.8 | 0.00 | 0.03 | 0.00 | 72 | 1007.0 |
| 20260506143024 | 16 | 250 | 0.0 | 8.0 | 0.00 | 0.03 | 0.00 | 71 | 1007.0 |
| 20260506141522 | 16 | 252 | 0.0 | 6.4 | 0.00 | 0.03 | 0.00 | 71 | 1007.0 |
| 20260506140059 | 16 | 186 | 1.6 | 14.5 | 0.00 | 0.03 | 0.00 | 70 | 1006.8 |
| 20260506134556 | 17 | 221 | 4.8 | 17.7 | 0.00 | 0.03 | 0.00 | 70 | 1006.6 |
| 20260506133101 | 16 | 148 | 0.0 | 9.7 | 0.00 | 0.03 | 0.00 | 72 | 1006.5 |
| 20260506131530 | 16 | 184 | 0.0 | 9.7 | 0.00 | 0.03 | 0.00 | 74 | 1006.6 |
| 20260506130014 | 15 | 198 | 0.0 | 9.7 | 0.00 | 0.03 | 0.00 | 75 | 1006.8 |
| 20260506124600 | 15 | 222 | 0.0 | 14.5 | 0.00 | 0.03 | 0.00 | 77 | 1007.1 |
| 20260506123048 | 14 | 214 | 1.6 | 9.7 | 0.00 | 0.03 | 0.00 | 79 | 1007.3 |
| 20260506121600 | 13 | 229 | 0.0 | 1.6 | 0.00 | 0.03 | 0.00 | 82 | 1007.5 |
| 20260506120100 | 12 | 209 | 0.0 | 0.0 | 0.00 | 0.03 | 0.00 | 83 | 1007.3 |
| 20260506114544 | 11 | 90 | 0.0 | 0.0 | 0.00 | 0.03 | 0.00 | 81 | 1007.3 |
| 20260506113033 | 10 | 10 | 0.0 | 0.0 | 0.00 | 0.03 | 0.00 | 81 | 1007.0 |
| 20260506111518 | 10 | 301 | 0.0 | 0.0 | 0.00 | 0.03 | 0.00 | 81 | 1007.3 |
| 20260506110009 | 10 | 301 | 0.0 | 0.0 | 0.00 | 0.03 | 0.00 | 81 | 1007.5 |
| 20260506104613 | 10 | 299 | 0.0 | 0.0 | 0.00 | 0.03 | 0.00 | 81 | 1007.3 |
| 20260506103050 | 9 | 13 | 0.0 | 0.0 | 0.00 | 0.03 | 0.00 | 80 | 1007.0 |
| 20260506101542 | 9 | 13 | 0.0 | 0.0 | 0.00 | 0.03 | 0.00 | 79 | 1007.1 |
| 20260506100024 | 9 | 12 | 0.0 | 0.0 | 0.00 | 0.03 | 0.00 | 79 | 1007.0 |
| 20260506094517 | 9 | 12 | 0.0 | 0.0 | 0.00 | 0.03 | 0.00 | 79 | 1006.9 |
| 20260506093012 | 9 | 13 | 0.0 | 0.0 | 0.00 | 0.03 | 0.00 | 79 | 1007.0 |
| 20260506091600 | 10 | 23 | 0.0 | 0.0 | 0.00 | 0.03 | 0.00 | 79 | 1006.9 |
| 20260506090044 | 10 | 346 | 0.0 | 0.0 | 0.00 | 0.03 | 0.00 | 79 | 1007.1 |
| 20260506084609 | 10 | 344 | 0.0 | 0.0 | 0.00 | 0.03 | 0.00 | 79 | 1007.0 |
| 20260506083038 | 10 | 345 | 0.0 | 0.0 | 0.00 | 0.03 | 0.00 | 79 | 1007.0 |
| 20260506081527 | 10 | 336 | 0.0 | 0.0 | 0.00 | 0.03 | 0.00 | 79 | 1007.3 |
| 20260506073046 | 10 | 107 | 0.0 | 0.0 | 0.00 | 0.03 | 0.00 | 74 | 1007.7 |
| 20260506071535 | 11 | 127 | 0.0 | 0.0 | 0.00 | 0.03 | 0.00 | 74 | 1007.9 |
| 20260506061600 | 11 | 136 | 0.0 | 0.0 | 0.00 | 0.03 | 0.00 | 72 | 1007.7 |
| 20260506061503 | 12 | 136 | 0.0 | 0.0 | 0.00 | 0.03 | 0.00 | 72 | 1007.6 |
| 20260506044539 | 13 | 310 | 0.0 | 0.0 | 0.00 | 0.03 | 0.00 | 71 | 1008.1 |
| 20260506043047 | 13 | 1 | 0.0 | 0.0 | 0.00 | 0.03 | 0.00 | 70 | 1007.9 |
| 20260506041530 | 14 | 313 | 0.0 | 0.0 | 0.00 | 0.03 | 0.00 | 70 | 1007.9 |